DO-64
1 32789U 08021G 13157.14941912 .00001512 00000-0 16817-3 0 6574
2 32789 097.7696 220.3253 0012623 337.7651 055.7094 14.88555872276488
CO-66
1 32791U 08021J 13157.74443507 .00000962 00000-0 11983-3 0 6274
2 32791 097.7532 215.9552 0014211 344.1763 135.2825 14.84638169276329
RS-30
1 32953U 08025A 13157.75818906 .00000010 00000-0 00000+0 0 9202
2 32953 082.5026 074.6776 0017308 256.8050 103.1103 12.43034458228611
METEOR-M
1 35865U 09049A 13157.67055076 -.00000018 00000-0 11160-4 0 5159
2 35865 098.6029 210.3517 0003296 095.1517 265.0044 14.21887485192977
RS-38
1 35869U 09049E 13157.77601441 .00000024 00000-0 30059-4 0 4767
2 35869 098.5969 210.3728 0005429 099.5831 260.5958 14.22131219193012
JUGNU
1 37839U 11058B 13157.01098884 .00000346 00000-0 42939-4 0 4012
2 37839 019.9633 014.5027 0018954 160.3168 351.6348 14.12159285 85319
SRMSAT
1 37841U 11058D 13157.81864701 .00000342 00000-0 43564-4 0 4046
2 37841 019.9736 021.4588 0011873 122.5456 321.4894 14.10228695 85308
RAX-2
1 37853U 11061D 13157.12591905 .00002749 00000-0 21375-3 0 5207
2 37853 101.7145 005.6347 0235386 059.2363 083.8785 14.83602994 86804
AUBIESAT
1 37854U 11061E 13157.54329544 .00002713 00000-0 20672-3 0 5167
2 37854 101.7173 007.0907 0235427 056.6649 356.6295 14.84317517 86888
HRBE
1 37855U 11061F 13157.54506851 .00002610 00000-0 20048-3 0 5147
2 37855 101.7180 006.8620 0236315 057.1390 356.1732 14.83982530 86874
RS-39
1 38051U 11062C 13157.77107808 .00015819 00000-0 50598-3 0 5105
2 38051 051.6359 260.8471 0011592 228.3934 269.5053 15.32520351 76184
E-STAR
1 38079U 12006C 13157.55957943 .00046513 32303-5 96962-3 0 1879
2 38079 069.4737 208.2147 0614145 151.3945 310.3697 14.46076114 68207
GOLIAT
1 38085U 12006J 13157.69091441 .00053236 33078-5 11039-2 0 1009
2 38085 069.4752 209.9878 0624414 152.2992 322.8488 14.43956242 68169
HORYU-2
1 38340U 12025D 13156.87959275 .00001238 00000-0 21032-3 0 5177
2 38340 098.2135 104.4326 0011702 292.8983 067.0927 14.70940879 56450
RS-40
1 38736U 12041D 13157.04445151 .00000010 00000-0 00000+0 0 2898
2 38736 082.4775 162.0709 0021576 355.0978 004.9888 12.42868365 38862
PROITERES
1 38756U 12047B 13157.73045336 .00000641 00000-0 10490-3 0 8460
2 38756 098.2528 234.5811 0013356 135.2124 225.0162 14.74224778 39854
RAIKO
1 38852U 98067CN 13157.63583399 .00124379 00000-0 71488-3 0 2461
2 38852 051.6370 142.9324 0011784 358.3072 001.7886 15.77763817 38209
FITSAT 1
1 38853U 98067CP 13156.87455459 .00213879 27805-4 69770-3 0 2508
2 38853 051.6370 141.5917 0010083 021.5877 338.5552 15.90169098 38203
TechEdSat
1 38854U 98067CQ 13124.93253577 .11592855 12481-4 94246-3 0 2908
2 38854 051.6449 297.0261 0010505 310.8629 049.0629 16.38844728 33294
F 1
1 38855U 98067CR 13129.77714356 .27424026 12535-4 30797-3 0 2871
2 38855 051.5085 272.4145 0008326 194.2908 166.5495 16.49710473 33949
WeWish
1 38856U 98067CS 13069.98095549 .16701328 12537-4 10063-2 0 2487
2 38856 051.6166 215.0521 0008325 316.0438 044.8765 16.41348316 24586
OSSI-1
1 39131U 13015B 13113.49391669 .00171511 13909-4 85875-3 0 37
2 39131 064.8913 019.7169 0213781 058.2074 115.1737 15.55484603 636
BEESAT-3
1 39134U 13015E 13157.61326282 .00004284 00000-0 35290-3 0 1203
2 39134 064.8763 241.7804 0014896 208.6311 151.3990 15.00279236 7247
BEESAT-2
1 39136U 13015G 13157.61308007 .00003784 00000-0 31349-3 0 1193
2 39136 064.8767 241.7805 0014706 208.8070 151.2236 15.00258077 7240
